FENGYUN 1C DEB, 30231

Orbit data source: Space-Track

FENGYUN 1C DEB, 30231 is space debris in SSO originally from a launch on Mon, 10 May 1999 UTC launched from the Taiyaun Space Center, China (TSC). Fengyun 1C debris stems from the Chinese weather satellite Fengyun-1C, which was intentionally destroyed by a Chinese anti-satellite missile in 2007. This event dramatically increased the amount of space debris, with thousands of trackable fragments posing hazards to satellites and human spaceflight. The Fengyun 1C debris cloud has become a focal point in discussions about space sustainability and the need for international regulations to prevent the creation of new debris.

Loading next visibility...
Identifier
30231, 1999-025WQ
Orbit
SSO
Country
Flag of CNCN / PRC
Related business
Manufacturer
Unknown
Mission
Spacecraft
Bus & Motor
Unknown
Mass
Unknown
Launch date (UTC)
1999-05-10 (27 years ago)
Launch vehicle
Unknown
Launch site
Taiyaun Space Center, China (TSC)
Object type
Payload
Rocket body
Debris
Shape & HBR
Unknown shape, 0.1 m
Radar Cross Section
Medium (>0.1 m² and <1 m²)

Expand to show TLE details & history
Last TLE update: 8 hours ago

TLE from 8 hours ago
0 FENGYUN 1C DEB
1 30231U 99025WQ  26209.09848117  .00000978  00000-0  51356-3 0  9998
2 30231  98.7773 254.3972 0129145 103.6761 312.5168 14.12162444  2276
Epoch: 2026-07-28T02:21Z
TLE epoch observation values (Epoch: 2026-07-28T02:21:48.773Z)
Latitude
54.24131°
Longitude
-99.14259°
Altitude
798.424 km
Speed
7.492 km/s
True Right ascension
16h 08m 19s
True Declination
54° 04' 44"
Sunlit
Object was in daylight at epoch
Visualization orbit readout
Latitude
Unknown
Longitude
Unknown
Altitude
Unknown
Speed
Unknown
Apparent Right ascension
Unknown
Apparent Declination
Unknown
Sunlit
N/A
Visualization observer readout
Local Sidereal Time
23:25:00
Azimuth
Unknown
Elevation
Unknown
Doppler factor
Unknown
Orbital elements
Apogee altitude
942.49 km
Perigee altitude
755.816 km
Semi-major axis
7,227.29 km
Eccentricity
0.01291
Inclination
98.7773°
RAAN
254.3972°
Arg. of periapsis
103.6761°
True anomaly
311.41404°
Mean anomaly
312.5168°
Eccentric anomaly
311.96662°
Mean motion
3.53248 °/min
Orbital period
101.91 mins
BSTAR
0.00051356
Loading maneuver chart data...
Computing Atmospheric mass density...

Documentation

Showing up to 5 results
|